PF1 CYXU-CYXU

Flight info

Callsign PF1
Flight time N/A
Altitude 1900
Route VFR CIRCUITS
Aircraft RAFL

Departure

Time 2026-05-05 00:16
Airport London International Airport (CYXU)

Arrival

Time N/A
Airport London International Airport (CYXU)
Time Latitude Longitude Altitude Speed Heading
2026-05-05 00:12 43.03565 -81.16275 907 ft 0 kts 73°
2026-05-05 00:13 43.03622 -81.16183 906 ft 30 kts 57°
2026-05-05 00:13 43.03669 -81.15964 904 ft 12 kts 73°
2026-05-05 00:14 43.03684 -81.15856 903 ft 21 kts 79°
2026-05-05 00:14 43.03740 -81.15739 900 ft 5 kts 354°
2026-05-05 00:14 43.03834 -81.15848 902 ft 31 kts 318°
2026-05-05 00:14 43.03954 -81.15991 904 ft 25 kts 323°
2026-05-05 00:15 43.04007 -81.16018 907 ft 0 kts
2026-05-05 00:15 43.04124 -81.15959 910 ft 14 kts 64°
2026-05-05 00:15 43.04122 -81.15879 909 ft 1 kts 144°
2026-05-05 00:16 43.03818 -81.15527 918 ft 184 kts 142°
2026-05-05 00:16 43.02249 -81.13709 1218 ft 354 kts 136°
2026-05-05 00:16 43.02833 -81.11193 1957 ft 381 kts 12°
2026-05-05 00:16 43.05968 -81.10896 1988 ft 571 kts 353°
2026-05-05 00:17 43.09799 -81.12032 2852 ft 547 kts 340°
2026-05-05 00:17 43.10537 -81.16003 2560 ft 510 kts 247°
2026-05-05 00:17 43.08710 -81.19334 3289 ft 386 kts 200°
2026-05-05 00:17 43.06449 -81.19044 2812 ft 289 kts 140°
2026-05-05 00:18 43.05186 -81.17130 1361 ft 230 kts 139°
2026-05-05 00:18 43.04207 -81.15956 913 ft 174 kts 139°
2026-05-05 00:18 43.03112 -81.14653 985 ft 226 kts 139°
2026-05-05 00:18 43.02322 -81.12590 1481 ft 312 kts 68°
2026-05-05 00:19 43.04019 -81.12597 2011 ft 257 kts 338°
2026-05-05 00:19 43.05616 -81.13524 1711 ft 250 kts 335°
2026-05-05 00:19 43.07107 -81.14571 1793 ft 233 kts 327°
2026-05-05 00:19 43.08369 -81.15907 1648 ft 223 kts 317°
2026-05-05 00:20 43.09164 -81.17557 1654 ft 199 kts 235°
2026-05-05 00:20 43.07814 -81.17828 1754 ft 232 kts 174°
2026-05-05 00:20 43.06278 -81.17742 1724 ft 208 kts 174°
2026-05-05 00:20 43.04887 -81.17678 1535 ft 207 kts 200°
2026-05-05 00:21 43.04943 -81.18481 1927 ft 222 kts 77°
2026-05-05 00:21 43.05010 -81.16378 1729 ft 190 kts
2026-05-05 00:21 43.05125 -81.17206 2246 ft 241 kts 140°
2026-05-05 00:21 43.03973 -81.15689 916 ft 197 kts 139°
2026-05-05 00:22 43.02733 -81.14215 989 ft 346 kts 139°
2026-05-05 00:22 43.02034 -81.11833 1283 ft 318 kts 32°
2026-05-05 00:22 43.04229 -81.11836 1663 ft 371 kts 349°
2026-05-05 00:22 43.06404 -81.13451 1901 ft 327 kts 324°
2026-05-05 00:23 43.08121 -81.15128 1621 ft 285 kts 317°
2026-05-05 00:23 43.07838 -81.17303 1522 ft 251 kts 224°
2026-05-05 00:23 43.06507 -81.18264 1532 ft 202 kts 167°
2026-05-05 00:23 43.05336 -81.17285 1211 ft 257 kts 140°
2026-05-05 00:24 43.03399 -81.14997 955 ft 385 kts 139°
2026-05-05 00:24 43.02070 -81.13403 1030 ft 384 kts 129°
2026-05-05 00:24 43.03544 -81.11728 1430 ft 358 kts 336°
2026-05-05 00:24 43.06386 -81.14002 1846 ft 320 kts 323°
2026-05-05 00:25 43.07053 -81.16012 1760 ft 253 kts 211°
2026-05-05 00:25 43.05431 -81.16453 1273 ft 226 kts 187°
2026-05-05 00:25 43.04105 -81.15871 908 ft 196 kts 140°
2026-05-05 00:25 43.03411 -81.15040 956 ft 212 kts 139°
2026-05-05 00:26 43.02339 -81.13727 1123 ft 203 kts 138°
2026-05-05 00:26 43.01601 -81.12143 1194 ft 196 kts 92°
2026-05-05 00:26 43.02069 -81.10534 1292 ft 203 kts 52°
2026-05-05 00:26 43.03328 -81.09459 1233 ft 231 kts 351°
2026-05-05 00:27 43.04436 -81.10681 1457 ft 199 kts 306°
2026-05-05 00:27 43.05148 -81.12114 1750 ft 167 kts 302°
2026-05-05 00:27 43.05777 -81.13547 1849 ft 191 kts 298°
2026-05-05 00:27 43.06572 -81.14976 1871 ft 190 kts 311°
2026-05-05 00:28 43.07553 -81.16177 1890 ft 199 kts 314°
2026-05-05 00:28 43.08560 -81.17616 1961 ft 213 kts 313°
2026-05-05 00:28 43.09898 -81.17952 1982 ft 217 kts 58°
2026-05-05 00:28 43.09406 -81.16291 1901 ft 228 kts 169°
2026-05-05 00:29 43.08962 -81.17262 1954 ft 216 kts 14°
2026-05-05 00:29 43.08593 -81.16632 2152 ft 265 kts 257°
2026-05-05 00:29 43.09623 -81.16928 2266 ft 278 kts 98°
2026-05-05 00:29 43.08351 -81.17093 2380 ft 284 kts 275°
2026-05-05 00:30 43.09671 -81.17485 2658 ft 268 kts 87°
2026-05-05 00:30 43.08934 -81.17310 1869 ft 211 kts 284°
2026-05-05 00:30 43.10075 -81.17494 1712 ft 226 kts 69°
2026-05-05 00:30 43.09230 -81.16319 1855 ft 226 kts 201°
2026-05-05 00:31 43.07827 -81.17258 1824 ft 210 kts 208°
2026-05-05 00:31 43.06558 -81.17860 1616 ft 183 kts 183°
2026-05-05 00:31 43.05399 -81.17388 1156 ft 174 kts 146°
2026-05-05 00:31 43.04482 -81.16320 969 ft 172 kts 138°
2026-05-05 00:32 43.03556 -81.15215 925 ft 224 kts 139°
2026-05-05 00:32 43.02527 -81.12968 1440 ft 366 kts 33°
2026-05-05 00:32 43.05183 -81.14682 1884 ft 463 kts 324°
2026-05-05 00:32 43.07317 -81.16853 2174 ft 323 kts 322°
2026-05-05 00:33 43.08935 -81.18564 2353 ft 266 kts 332°
2026-05-05 00:33 43.10587 -81.18121 2745 ft 292 kts 83°
2026-05-05 00:33 43.09639 -81.18337 2444 ft 223 kts 229°
2026-05-05 00:33 43.08394 -81.19206 2418 ft 192 kts 192°
2026-05-05 00:34 43.07104 -81.19384 2020 ft 185 kts 197°
2026-05-05 00:34 43.06662 -81.20604 1776 ft 165 kts 296°
2026-05-05 00:34 43.07463 -81.20494 1777 ft 223 kts 138°
2026-05-05 00:34 43.06352 -81.18700 1592 ft 238 kts 130°
2026-05-05 00:35 43.05155 -81.17816 1472 ft 187 kts 210°
2026-05-05 00:35 43.05493 -81.18340 1796 ft 206 kts 108°